>01 y 02 de Octubre / Concepción (Entre Ríos)
Pos Auto Piloto Marca Vts. Tiempo Dif.
1 17 LUCAS PETRACCHINI RENAULT CLIO 14 28:17.123
2 3 FRANCISCO COLTRINARI TOYOTA EIOS 14 28:19.136 2,013
3 8 JUAN MANUEL DAMIANI TOYOTA ETIOS 14 28:19.428 2,305
4 1 PABLO VUYOVICH FIESTA KINETIC 14 28:24.182 7,059
5 18 RENZO CERRETTI FIESTA KINETIC 14 28:25.510 8,387
6 116 ANDRES D'AMICO RENAULT CLIO 14 28:26.080 8,957
7 2 THIAGO MARTINEZ RENAULT CLIO 14 28:26.592 9,469
8 31 JONATHAN BALDINELLI CHEVROLET ONIX 14 28:27.670 10,547
9 93 MARTIN BADARACCO NISSAN MARCH 14 28:27.850 10,727
10 39 GONZALO ALCAINE TOYOTA ETIOS 14 28:28.423 11,300
11 9 TOMAS SNIECHOWSKI FIESTA KINETIC 14 28:29.441 12,318
12 38 LUCAS BARBALARGA RENAULT CLIO 14 28:32.330 15,207
13 118 WALTER BESSONE TOYOTA ETIOS 14 28:32.988 15,865
14 111 YAIR ETCHEVESTE TOYOTA ETIOS 14 28:33.209 16,086
15 152 EZEQUIEL BALDINELLI FIESTA KINETIC 14 28:33.927 16,804
16 70 MATIAS CRAVERO TOYOTA ETIOS 14 28:35.688 18,565
17 19 JUAN BENEDETTI TOYOTA ETIOS 14 28:37.173 20,050
18 16 NICOLAS BULICH TOYOTA ETIOS 14 28:37.219 20,096
19 114 ESTEBAN CASAIS RENAULT CLIO 14 28:37.820 20,697
20 22 JUAN PABLO URRUTIA FIESTA KINETIC 14 28:40.405 23,282
21 113 LUIS BESSONE TOYOTA ETIOS 14 28:41.004 23,881
22 87 MARCELO MARCHESSE TOYOTA ETIOS 14 28:41.937 24,814
23 11 ALFREDO LESTARD RENAULT CLIO 14 28:42.106 24,983
24 86 JAVIER NUÑEZ TOYOTA ETIOS 14 28:42.359 25,236
25 40 MARCELO GARCIA RENAULT CLIO 14 28:47.954 30,831
26 88 JORGE POSSIEL NISSAN MARCH 14 28:48.226 31,103
27 95 PABLO MELILLO TOYOTA ETIOS 14 28:48.877 31,754
28 52 DANIEL LESTARD TOYOTA ETIOS 14 28:55.316 38,193
29 15 MARTIN BLASIG TOYOTA ETIOS 14 28:55.781 38,658
30 32 FACUNDO VACCALLUZZO RENAULT CLIO 14 28:56.753 39,630
31 155 BRUNO CHIAPPELLA TOYOTA ETIOS 14 29:03.130 46,007
32 44 JUAN GARAVAGLIA CHEVROLET ONIX 14 29:05.258 48,135
33 20 RUBEN LOIACONO TOYOTA ETIOS 14 29:08.083 50,960
34 43 DIEGO PRESTA RENAULT CLIO 14 29:22.039 1:04.916
35 33 PABLO MALIZIA TOYOTA ETIOS 12 27:45.148 2 Vueltas
NO CLASIFICADOS
92 IÑAKI BEITIA RENAULT CLIO 10 22:00.898 4 Vueltas
41 JUAN JOSE CONDE RENAULT CLIO 8 19:22.211 6 Vueltas
7 RUDI BUNDZIAK NISAN MARCH 8 19:36.908 6 Vueltas
36 EDUARDO MORENO TOYOTA ETIOS 8 21:32.277 6 Vueltas
68 CRISTIAN GARBIGLIA TOYOTA ETIOS 2 4:39.553 12 Vueltas
78 RAMIRO ALCAINE RENAULT CLIO 1 1:44.484 13 Vueltas
12 SANTIAGO ROBLEDO TOYOTA ETIOS 1 1:45.330 13 Vueltas
14 JUAN KREITZ NISSAN MARCH 1 1:45.732 13 Vueltas
37 PABLO COLLAZO FIESTA KINETIC 1 1:48.846 13 Vueltas

AUTO 7 (BUNDZIAK) APERCIBIDO POR MANIOBRA PELIGROSA AL 41 (CONDE).

Márgen de victoria 2.013 Velocidad media 127,075 Mejor t° de vuelta 1:39.204 Mejor Vel. 155,280 Mejor vuelta para 17 – LUCAS PETRACCHINI

Pos Auto Piloto Marca Tiempo Dif.
1 17 LUCAS PETRACCHINI RENAULT CLIO 1:38.411
2 3 FRANCISCO COLTRINARI TOYOTA EIOS 1:38.489 0.078
3 2 THIAGO MARTINEZ RENAULT CLIO 1:38.670 0.259
4 8 JUAN MANUEL DAMIANI TOYOTA ETIOS 1:38.696 0.285
5 1 PABLO VUYOVICH FIESTA KINETIC 1:38.723 0.312
6 39 GONZALO ALCAINE TOYOTA ETIOS 1:38.921 0.510
7 68 CRISTIAN GARBIGLIA TOYOTA ETIOS 1:38.963 0.552
8 116 ANDRES D'AMICO RENAULT CLIO 1:39.018 0.607
9 18 RENZO CERRETTI FIESTA KINETIC 1:39.022 0.611
10 88 JORGE POSSIEL NISSAN MARCH 1:39.068 0.657
11 14 JUAN KREITZ NISSAN MARCH 1:39.101 0.690
12 118 WALTER BESSONE TOYOTA ETIOS 1:39.188 0.777
13 78 RAMIRO ALCAINE RENAULT CLIO 1:39.211 0.800
14 33 PABLO MALIZIA TOYOTA ETIOS 1:39.251 0.840
15 31 JONATHAN BALDINELLI CHEVROLET ONIX 1:39.271 0.860
16 38 LUCAS BARBALARGA RENAULT CLIO 1:39.292 0.881
17 12 SANTIAGO ROBLEDO TOYOTA ETIOS 1:39.298 0.887
18 93 MARTIN BADARACCO NISSAN MARCH 1:39.412 1,001
19 7 RUDI BUNDZIAK NISAN MARCH 1:39.454 1,043
20 111 YAIR ETCHEVESTE TOYOTA ETIOS 1:39.458 1,047
21 70 MATIAS CRAVERO TOYOTA ETIOS 1:39.557 1,146
22 9 TOMAS SNIECHOWSKI FIESTA KINETIC 1:39.575 1,164
23 152 EZEQUIEL BALDINELLI FIESTA KINETIC 1:39.608 1,197
24 41 JUAN JOSE CONDE RENAULT CLIO 1:39.690 1,279
25 11 ALFREDO LESTARD RENAULT CLIO 1:39.724 1,313
26 86 JAVIER NUÑEZ TOYOTA ETIOS 1:39.850 1,439
27 16 NICOLAS BULICH TOYOTA ETIOS 1:39.872 1,461
28 37 PABLO COLLAZO FIESTA KINETIC 1:39.888 1,477
29 92 IÑAKI BEITIA RENAULT CLIO 1:39.919 1,508
30 95 PABLO MELILLO TOYOTA ETIOS 1:39.937 1,526
31 87 MARCELO MARCHESSE TOYOTA ETIOS 1:39.941 1,530
32 22 JUAN PABLO URRUTIA FIESTA KINETIC 1:39.991 1,580
33 99 LUCIANO VIANA TOYOTA ETIOS 1:40.041 1,630
34 36 EDUARDO MORENO TOYOTA ETIOS 1:40.110 1,699
35 114 ESTEBAN CASAIS RENAULT CLIO 1:40.160 1,749
36 113 LUIS BESSONE TOYOTA ETIOS 1:40.193 1,782
37 89 AGUSTIN RIVERA FIESTA KINETIC 1:40.221 1,810
38 15 MARTIN BLASIG TOYOTA ETIOS 1:40.375 1,964
39 40 MARCELO GARCIA RENAULT CLIO 1:40.401 1,990
40 32 FACUNDO VACCALLUZZO RENAULT CLIO 1:40.554 2,143
41 52 DANIEL LESTARD TOYOTA ETIOS 1:40.564 2,153
42 20 RUBEN LOIACONO TOYOTA ETIOS 1:40.682 2,271
43 155 BRUNO CHIAPPELLA TOYOTA ETIOS 1:41.320 2,909
44 43 DIEGO PRESTA RENAULT CLIO 1:41.332 2,921
45 44 JUAN GARAVAGLIA CHEVROLET ONIX 1:42.722 4,311
46 19 JUAN BENEDETTI TOYOTA ETIOS 1:48.495 10,084

Pos Auto Piloto Marca Tiempo Dif.
1 31 JONATHAN BALDINELLI CHEVROLET ONIX 1:38.823
2 19 JUAN BENEDETTI TOYOTA ETIOS 1:38.994 0.171
3 17 LUCAS PETRACCHINI RENAULT CLIO 1:39.032 0.209
4 2 THIAGO MARTINEZ RENAULT CLIO 1:39.133 0.310
5 116 ANDRES D'AMICO RENAULT CLIO 1:39.365 0.542
6 12 SANTIAGO ROBLEDO TOYOTA ETIOS 1:39.381 0.558
7 78 RAMIRO ALCAINE RENAULT CLIO 1:39.511 0.688
8 16 NICOLAS BULICH TOYOTA ETIOS 1:39.564 0.741
9 38 LUCAS BARBALARGA RENAULT CLIO 1:39.709 0.886
10 18 RENZO CERRETTI FIESTA KINETIC 1:39.762 0.939
11 3 FRANCISCO COLTRINARI TOYOTA EIOS 1:39.804 0.981
12 68 CRISTIAN GARBIGLIA TOYOTA ETIOS 1:39.811 0.988
13 33 PABLO MALIZIA TOYOTA ETIOS 1:39.902 1.079
14 87 MARCELO MARCHESSE TOYOTA ETIOS 1:39.924 1.101
15 14 JUAN KREITZ NISSAN MARCH 1:39.930 1.107
16 36 EDUARDO MORENO TOYOTA ETIOS 1:39.934 1.111
17 86 JAVIER NUÑEZ TOYOTA ETIOS 1:39.958 1.135
18 15 MARTIN BLASIG TOYOTA ETIOS 1:39.974 1.151
19 88 JORGE POSSIEL NISSAN MARCH 1:40.051 1.228
20 114 ESTEBAN CASAIS RENAULT CLIO 1:40.083 1.260
21 7 RUDI BUNDZIAK NISAN MARCH 1:40.095 1.272
22 1 PABLO VUYOVICH FIESTA KINETIC 1:40.112 1.289
23 93 MARTIN BADARACCO NISSAN MARCH 1:40.135 1.312
24 39 GONZALO ALCAINE TOYOTA ETIOS 1:40.190 1.367
25 9 TOMAS SNIECHOWSKI FIESTA KINETIC 1:40.262 1.439
26 37 PABLO COLLAZO FIESTA KINETIC 1:40.278 1.455
27 89 AGUSTIN RIVERA FIESTA KINETIC 1:40.291 1.468
28 118 WALTER BESSONE TOYOTA ETIOS 1:40.593 1.770
29 41 JUAN JOSE CONDE RENAULT CLIO 1:40.643 1.820
30 95 PABLO MELILLO TOYOTA ETIOS 1:40.650 1.827
31 11 ALFREDO LESTARD RENAULT CLIO 1:40.706 1.883
32 111 YAIR ETCHEVESTE TOYOTA ETIOS 1:40.836 2.013
33 8 JUAN MANUEL DAMIANI TOYOTA ETIOS 1:40.853 2.030
34 70 MATIAS CRAVERO TOYOTA ETIOS 1:41.039 2.216
35 113 LUIS BESSONE TOYOTA ETIOS 1:41.102 2.279
36 40 MARCELO GARCIA RENAULT CLIO 1:41.107 2.284
37 99 LUCIANO VIANA TOYOTA ETIOS 1:41.343 2.520
38 22 JUAN PABLO URRUTIA FIESTA KINETIC 1:41.432 2.609
39 52 DANIEL LESTARD TOYOTA ETIOS 1:41.513 2.690
40 20 RUBEN LOIACONO TOYOTA ETIOS 1:41.671 2.848
41 152 EZEQUIEL BALDINELLI FIESTA KINETIC 1:42.028 3.205
42 44 JUAN GARAVAGLIA CHEVROLET ONIX 1:43.882 5.059
43 43 DIEGO PRESTA RENAULT CLIO 1:44.987 6.164
44 155 BRUNO CHIAPPELLA TOYOTA ETIOS 1:46.648 7.825
45 92 IÑAKI BEITIA RENAULT CLIO 1:59.223 20.400

SIN TIEMPO AUTO 32 (VACCALLUZZO)